Wind_Speed
32 33 33 34 33 34 35 35 36 35 34 34 34 33 31 31 30 30 28 27 27 26 23 22 22 22 22 22 22 22 23 23 22 23 23 22 22 21 19 17 15 13 11
33 33 33 34 33 34 35 34 35 36 36 34 34 33 32 32 31 30 28 26 27 26 25 23 22 21 21 21 22 23 23 24 24 24 24 24 24 23 21 19 18 16 14
34 34 34 34 34 35 36 36 35 36 37 36 35 33 33 33 32 30 29 27 27 27 26 24 23 22 22 22 22 22 23 23 24 24 25 26 25 25 24 22 20 19 17
35 34 33 33 34 35 35 35 35 35 36 37 36 35 34 33 32 31 30 29 28 27 26 25 24 23 22 21 21 21 21 22 23 24 25 26 27 27 27 26 24 22 20
35 34 34 34 34 34 33 32 33 34 34 35 36 35 34 34 33 32 30 30 29 28 27 26 24 23 22 21 20 20 21 20 22 23 24 26 27 28 28 28 27 26 24
36 35 35 34 34 33 31 31 33 33 33 34 35 35 35 34 34 32 31 31 30 28 27 26 25 23 23 22 21 20 20 20 20 21 22 24 26 28 29 30 30 28 27
37 37 36 36 35 33 32 31 31 32 33 33 34 35 36 35 35 33 33 31 30 29 27 26 26 23 22 22 21 21 20 20 19 20 21 22 24 25 27 29 31 31 30
38 38 38 37 36 35 34 32 31 31 31 33 34 35 36 36 34 33 32 32 31 29 28 27 25 24 22 21 21 20 20 19 19 18 19 20 21 23 24 25 28 31 31
40 41 40 40 39 37 36 34 32 32 32 32 34 35 36 35 34 34 33 31 30 29 28 26 25 24 23 22 21 20 19 18 17 17 17 17 18 19 22 23 24 27 31
41 41 42 42 42 40 38 37 35 35 34 33 33 34 35 35 33 33 33 32 30 29 28 27 25 24 23 22 21 20 19 17 16 15 15 15 16 17 17 19 21 23 27
42 42 42 42 43 43 41 40 39 38 37 36 35 35 35 37 37 35 32 31 30 29 28 27 26 24 24 23 22 20 19 17 15 14 14 14 14 16 16 18 20 21 23
42 42 41 41 41 42 42 42 41 40 40 39 38 37 36 36 37 37 35 32 31 30 29 28 27 26 26 25 23 21 19 17 15 14 13 13 13 14 15 16 18 20 21
41 42 41 40 40 40 41 42 43 43 43 42 41 40 39 37 36 37 36 35 33 32 30 30 30 29 28 26 25 23 20 17 15 14 13 12 12 12 13 14 15 17 19
41 41 42 42 41 41 42 42 43 44 44 44 44 44 42 41 40 38 38 37 36 34 33 32 32 31 30 28 27 25 22 19 17 15 14 12 11 11 11 12 14 16 17
41 42 43 44 44 45 45 45 45 45 46 47 47 47 45 44 43 41 40 40 38 37 36 35 34 33 32 31 30 27 25 21 19 16 14 13 13 12 11 12 13 14 16
42 43 45 46 48 49 49 49 50 49 49 50 50 50 49 47 46 44 42 42 41 40 39 38 36 35 35 34 33 30 27 24 22 19 16 15 14 14 13 12 13 14 16
44 46 47 49 50 52 53 54 55 55 54 54 54 53 53 52 50 48 46 44 43 43 43 40 39 38 38 36 35 33 30 27 25 22 19 17 16 15 14 13 14 15 16
46 48 50 52 53 55 57 59 60 60 60 59 58 57 57 56 55 52 50 48 46 45 45 43 41 40 39 39 38 36 33 31 28 25 22 19 18 17 15 15 15 15 16
49 50 52 54 56 58 60 61 62 63 63 62 62 61 61 60 59 57 54 52 49 48 47 47 45 43 42 41 40 38 36 34 32 29 25 22 19 18 16 16 16 16 16
50 51 53 54 56 58 59 60 61 62 63 62 62 63 63 63 62 61 59 57 54 51 50 49 48 46 44 43 42 40 39 37 35 32 28 25 21 19 18 17 17 16 17
51 52 53 53 54 54 55 56 58 59 60 61 61 62 63 64 64 64 63 61 59 56 52 51 50 49 47 45 44 43 41 40 37 34 31 27 24 21 19 18 17 17 17
50 51 51 50 49 49 49 50 52 53 55 56 57 58 60 63 65 65 64 63 62 60 57 54 51 50 48 47 46 45 43 42 40 37 34 30 26 23 21 19 18 18 17
49 48 47 47 46 45 44 44 45 47 49 50 51 53 56 58 62 64 65 64 64 62 60 57 55 52 51 48 47 46 45 44 42 39 36 32 28 25 22 20 18 18 18
46 45 45 44 43 41 39 38 38 39 42 45 47 50 52 53 56 60 63 64 64 64 62 60 58 55 53 51 49 48 46 45 44 41 38 34 30 27 24 21 19 18 18
44 43 42 40 37 34 32 31 30 31 34 38 42 45 48 49 50 53 58 61 63 64 64 62 60 58 55 51 50 49 47 45 43 42 39 35 32 29 26 23 20 19 18
41 40 38 35 33 30 27 25 24 24 26 30 35 40 44 44 45 47 51 55 59 61 62 62 61 60 57 54 51 49 48 47 44 42 39 37 34 31 28 24 22 20 19
Wind_Direction
292 291 291 291 290 288 284 279 276 273 271 268 261 256 255 256 256 257 256 253 249 249 248 248 245 245 246 244 243 243 242 241 240 236 235 235 233 232 232 230 229 226 222
289 289 290 290 291 290 287 281 275 271 269 266 260 256 255 254 254 256 255 252 245 244 243 243 244 245 245 244 245 243 241 241 241 239 238 236 234 232 232 231 230 227 224
287 287 288 290 289 290 286 282 278 272 268 265 260 256 255 254 254 253 252 250 244 243 242 242 242 242 242 243 244 243 243 244 242 241 239 237 235 233 232 231 231 230 227
285 286 286 287 288 288 286 281 275 271 265 262 259 257 255 254 253 251 249 247 245 245 242 241 242 241 240 241 241 242 244 244 243 242 241 240 237 235 234 233 231 231 230
284 284 285 285 287 287 285 279 272 267 263 261 259 257 255 253 252 248 247 245 245 244 241 238 239 238 238 239 240 243 243 243 244 243 242 239 237 237 236 235 233 231 231
283 284 284 283 285 285 282 283 272 264 261 259 257 256 253 252 251 247 246 244 243 240 236 234 235 235 237 238 241 242 243 243 245 245 243 240 239 238 238 238 236 234 232
282 282 283 282 282 283 281 281 275 264 259 256 257 256 251 250 249 248 246 244 240 237 236 234 233 235 236 238 240 240 241 242 245 246 245 242 241 240 241 241 239 236 234
283 282 282 282 280 279 278 276 276 269 263 258 257 255 251 249 248 245 244 242 240 238 236 233 233 234 235 236 237 238 239 241 242 244 243 242 243 242 243 244 242 239 237
283 282 281 280 279 278 276 274 272 271 268 262 257 255 252 249 247 245 243 241 240 238 237 234 231 230 230 231 231 233 235 236 237 238 239 240 241 242 243 244 245 244 241
284 282 280 279 278 277 274 272 269 267 266 264 259 253 250 246 245 244 243 241 239 238 237 235 231 228 226 224 224 227 229 230 233 235 236 237 238 240 241 242 243 245 243
286 284 282 279 277 276 274 271 268 265 263 262 261 256 251 247 244 242 242 240 237 236 234 232 229 224 221 218 216 218 221 224 228 231 234 236 238 240 241 241 242 244 245
289 287 284 281 278 276 273 271 268 265 262 260 260 258 254 250 247 242 240 238 236 233 230 229 225 221 217 214 210 212 215 218 222 226 230 234 237 239 241 243 244 245 246
289 288 286 283 280 277 275 271 268 265 262 259 257 257 255 251 248 243 240 237 235 231 227 225 222 219 215 211 209 211 211 213 217 222 226 230 234 236 239 242 246 248 249
287 286 284 283 281 278 276 273 270 267 262 258 256 256 254 251 249 244 239 236 235 231 226 223 220 217 214 211 211 211 211 213 216 220 224 229 235 238 242 247 250 252 254
286 285 283 281 280 277 275 273 271 268 264 259 255 254 253 251 249 245 239 236 234 230 226 222 219 217 215 212 212 211 212 213 215 220 226 233 239 243 248 253 257 259 259
287 285 283 281 279 277 274 272 269 267 264 260 256 252 251 250 247 245 242 238 233 230 227 223 220 218 217 214 214 212 213 214 217 221 227 234 241 246 250 257 262 264 263
286 285 283 281 278 276 273 271 268 265 262 259 255 251 249 247 246 245 242 239 234 231 228 225 221 219 218 217 216 214 214 216 219 223 228 235 242 249 253 259 265 267 266
289 286 284 281 278 275 272 270 267 264 261 257 253 249 247 245 243 242 240 237 234 230 227 225 222 220 219 218 217 216 215 218 221 224 228 235 242 248 254 261 268 270 269
292 290 287 283 280 276 273 269 266 263 260 256 252 247 244 242 240 239 238 236 233 230 227 225 223 221 221 220 219 217 217 219 222 225 229 234 240 247 253 261 269 272 272
297 294 291 287 283 279 274 269 265 261 258 254 250 246 242 240 238 236 235 234 232 230 228 226 224 222 222 222 221 219 218 220 222 225 229 233 239 246 252 261 268 272 273
302 299 296 292 288 282 276 270 264 260 256 252 248 244 241 238 236 235 233 232 231 229 228 226 224 223 223 223 222 221 220 220 222 225 228 231 237 244 251 259 266 270 273
307 304 300 296 292 287 280 272 266 260 254 250 246 242 239 237 234 233 232 230 229 228 227 227 224 222 223 223 223 222 221 220 222 224 226 229 235 242 248 256 263 268 271
311 308 304 301 297 291 284 276 268 259 252 247 242 239 236 235 233 231 230 229 228 227 227 227 225 222 222 222 223 222 221 220 221 223 225 229 233 239 245 252 258 264 268
316 312 309 306 302 296 288 280 271 260 251 243 238 235 233 233 231 230 228 228 227 227 226 225 226 224 223 223 224 222 221 220 220 221 224 229 232 237 242 248 254 261 264
319 317 315 312 308 301 293 284 273 258 247 240 236 232 229 228 227 227 227 227 226 226 225 225 225 225 224 224 224 225 223 221 221 220 222 227 230 234 239 244 251 257 260
324 323 321 318 314 307 299 289 275 258 245 237 232 227 224 223 223 223 224 225 225 224 224 224 224 224 224 224 224 224 224 221 220 220 221 225 228 232 236 241 247 252 256
Height
5850 5849 5847 5845 5844 5843 5843 5842 5843 5844 5845 5847 5849 5851 5854 5855 5857 5858 5860 5862 5863 5865 5868 5870 5872 5874 5876 5879 5881 5883 5886 5888 5891 5893 5896 5898 5900 5902 5904 5906 5908 5909 5911
5844 5842 5841 5839 5837 5835 5835 5834 5834 5835 5837 5839 5841 5843 5846 5848 5850 5852 5854 5855 5856 5859 5862 5864 5867 5869 5871 5873 5876 5878 5881 5884 5886 5889 5891 5894 5896 5899 5901 5903 5905 5907 5909
5836 5835 5834 5832 5831 5828 5826 5825 5826 5827 5828 5830 5833 5835 5838 5840 5843 5845 5847 5849 5851 5854 5856 5859 5861 5863 5866 5868 5870 5873 5876 5878 5881 5884 5887 5890 5892 5895 5897 5900 5902 5904 5906
5829 5827 5826 5825 5823 5821 5819 5817 5817 5818 5820 5822 5825 5827 5830 5832 5835 5838 5840 5842 5845 5847 5850 5853 5855 5858 5860 5863 5865 5868 5871 5873 5876 5879 5882 5884 5887 5890 5893 5896 5898 5900 5903
5820 5819 5818 5817 5815 5814 5812 5810 5810 5811 5812 5814 5816 5819 5821 5824 5828 5830 5833 5836 5838 5841 5844 5846 5849 5852 5855 5858 5861 5863 5866 5868 5871 5874 5877 5879 5882 5885 5888 5891 5893 5896 5899
5812 5811 5810 5809 5808 5806 5804 5803 5803 5803 5805 5806 5808 5811 5814 5816 5820 5822 5825 5828 5831 5834 5837 5840 5843 5846 5849 5852 5856 5858 5861 5863 5866 5868 5871 5874 5876 5879 5882 5885 5889 5892 5895
5804 5803 5802 5801 5800 5798 5797 5796 5795 5796 5797 5798 5800 5803 5806 5808 5812 5815 5818 5821 5824 5828 5831 5834 5837 5839 5843 5847 5850 5853 5856 5858 5861 5863 5866 5868 5871 5874 5877 5880 5883 5886 5890
5795 5794 5793 5792 5791 5790 5790 5789 5788 5788 5789 5790 5793 5795 5797 5800 5803 5806 5810 5814 5817 5821 5824 5827 5831 5834 5838 5842 5845 5848 5851 5854 5856 5858 5860 5863 5866 5869 5871 5874 5877 5880 5884
5786 5784 5783 5782 5782 5782 5782 5781 5782 5782 5782 5783 5785 5787 5789 5792 5795 5799 5802 5806 5810 5814 5818 5821 5825 5828 5832 5837 5840 5843 5846 5849 5851 5853 5855 5858 5860 5863 5866 5869 5871 5874 5877
5775 5774 5773 5772 5771 5772 5772 5773 5774 5774 5775 5775 5777 5779 5781 5783 5786 5790 5794 5798 5802 5807 5811 5815 5818 5823 5827 5831 5835 5838 5841 5844 5846 5848 5851 5853 5855 5858 5860 5863 5865 5868 5871
5764 5762 5762 5761 5761 5761 5761 5762 5764 5765 5766 5767 5769 5770 5772 5774 5777 5781 5785 5790 5794 5799 5804 5808 5812 5817 5821 5826 5829 5833 5836 5838 5841 5844 5846 5848 5851 5853 5855 5857 5860 5862 5864
5752 5751 5750 5749 5749 5749 5750 5751 5752 5754 5756 5758 5760 5762 5764 5766 5768 5772 5777 5782 5787 5791 5796 5801 5806 5811 5816 5820 5824 5828 5831 5833 5836 5839 5842 5844 5846 5848 5850 5852 5854 5856 5859
5741 5739 5738 5738 5738 5737 5738 5738 5740 5742 5745 5748 5750 5752 5755 5758 5760 5763 5768 5774 5779 5784 5789 5794 5799 5804 5809 5814 5819 5823 5826 5829 5832 5835 5838 5840 5842 5844 5845 5847 5849 5851 5853
5731 5729 5727 5726 5726 5726 5726 5726 5727 5729 5732 5735 5739 5741 5745 5748 5751 5755 5759 5765 5771 5776 5781 5787 5792 5797 5803 5808 5812 5817 5820 5823 5827 5830 5833 5835 5838 5839 5841 5842 5844 5846 5848
5720 5718 5716 5715 5714 5713 5713 5714 5715 5716 5719 5722 5725 5729 5733 5737 5741 5745 5750 5756 5762 5768 5773 5778 5784 5790 5796 5801 5806 5810 5814 5818 5822 5825 5828 5831 5833 5835 5836 5838 5839 5841 5843
5709 5707 5704 5702 5701 5700 5700 5700 5701 5702 5704 5707 5711 5715 5720 5724 5729 5734 5740 5746 5752 5758 5764 5770 5776 5783 5788 5794 5799 5803 5808 5812 5817 5820 5823 5826 5828 5830 5831 5833 5834 5836 5837
5697 5694 5691 5688 5686 5685 5683 5683 5684 5686 5688 5691 5695 5700 5705 5711 5716 5722 5728 5735 5742 5748 5755 5761 5768 5774 5779 5786 5791 5796 5801 5806 5810 5814 5818 5820 5823 5825 5826 5828 5829 5830 5832
5683 5679 5675 5672 5669 5667 5665 5664 5665 5666 5669 5673 5677 5683 5689 5695 5702 5709 5715 5722 5730 5737 5744 5751 5758 5764 5770 5776 5782 5788 5794 5799 5804 5808 5812 5815 5817 5820 5821 5822 5824 5825 5826
5667 5662 5657 5653 5650 5646 5644 5643 5643 5644 5647 5651 5657 5663 5670 5678 5686 5694 5702 5709 5717 5725 5732 5740 5748 5755 5760 5767 5773 5780 5786 5792 5797 5802 5806 5809 5812 5814 5816 5817 5818 5819 5820
5649 5644 5638 5633 5628 5624 5621 5619 5619 5621 5624 5629 5634 5642 5650 5659 5667 5676 5685 5694 5703 5712 5720 5728 5737 5744 5750 5757 5764 5771 5778 5784 5790 5795 5799 5803 5806 5808 5810 5812 5813 5814 5815
5632 5625 5618 5611 5605 5600 5597 5595 5595 5597 5601 5606 5612 5620 5629 5638 5648 5658 5668 5679 5688 5698 5707 5716 5725 5733 5740 5747 5755 5762 5769 5775 5781 5787 5792 5796 5800 5802 5804 5806 5807 5808 5809
5615 5606 5598 5591 5585 5579 5575 5573 5573 5575 5579 5584 5592 5599 5608 5617 5628 5640 5651 5662 5673 5683 5694 5703 5713 5721 5729 5737 5745 5752 5760 5767 5773 5779 5784 5789 5793 5796 5798 5800 5801 5803 5804
5599 5590 5581 5573 5567 5561 5556 5553 5552 5554 5558 5565 5572 5580 5589 5599 5609 5621 5633 5645 5657 5668 5680 5691 5700 5709 5718 5727 5735 5742 5749 5757 5765 5771 5777 5782 5786 5789 5792 5794 5795 5797 5798
5585 5575 5567 5558 5551 5545 5540 5537 5535 5536 5541 5548 5555 5564 5573 5582 5593 5604 5616 5628 5641 5653 5666 5678 5689 5698 5706 5715 5723 5731 5738 5747 5755 5763 5770 5775 5779 5782 5785 5788 5789 5791 5792
5573 5563 5554 5546 5538 5532 5527 5524 5522 5523 5527 5533 5541 5549 5558 5568 5579 5590 5601 5614 5626 5638 5650 5662 5674 5685 5695 5704 5712 5721 5729 5738 5746 5754 5761 5767 5771 5775 5779 5781 5783 5785 5787
5563 5554 5545 5536 5529 5523 5518 5514 5512 5513 5516 5522 5528 5536 5546 5556 5566 5576 5588 5599 5612 5624 5637 5650 5661 5673 5683 5692 5702 5710 5719 5728 5736 5745 5752 5758 5763 5768 5772 5775 5777 5779 5781